Location: Palomar Mountain Lodge
(33.3110°N, 116.8495°W)
Time: 13:12:03
(UTC-08:00)

MetOp-B - Pass Details

Date: 12 July 2018
Orbit: 819 x 821 km, 98.7° (Epoch: 08 December)

Event Time Altitude Azimuth Distance (km) Brightness Sun altitude
Exits shadow 21:27:31 25° 143° (SE) 1,593 5.0 -16.2°
Maximum altitude 21:30:31 57° 73° (ENE) 957 4.3 -16.7°
Drops below altitude 10° 21:35:45 10° 356° (N) 2,420 7.2 -17.5°
Sets 21:38:08 0° 353° (N) 3,355 8.1 -17.9°
